Regional Weather Roundup
Issued by NWS Sioux Falls, SD

Home | Current Version | Previous Version | Graphics & Text | Print | Product List | Glossary Off
Versions: 1 2 3 4 5 6 7 8 9 10 11 12 13 14 15 16 17 18 19 20 21 22 23 24 25 26 27 28 29 30 31 32 33 34 35 36 37 38 39 40 41 42 43 44 45 46 47 48 49 50

000
ASUS43 KFSD 251302
RWRFSD

WEATHER ROUNDUP FOR SE SOUTH DAKOTA/SW MINNESOTA/NW IOWA
NATIONAL WEATHER SERVICE SIOUX FALLS SD
700 AM CST THU DEC 25 2014

NOTE: "FAIR" INDICATES FEW OR NO CLOUDS BELOW 12,000 FEET WITH NO
SIGNIFICANT WEATHER AND OR OBSTRUCTIONS TO VISIBILITY.


SDZ038>040-050-052>070-251400-
SOUTHEAST SOUTH DAKOTA

CITY           SKY/WX    TMP DP  RH WIND       PRES   REMARKS
CHAMBERLAIN    MIX PCPN  28  26  89 N8        29.55S WCI  20
HURON          FRZ RAIN  28  25  86 N8        29.60R WCI  20
MADISON        CLOUDY    27  27 100 NE6       29.57R WCI  20
MITCHELL       CLOUDY    28  26  92 NE12      29.58R WCI  18
SIOUX FALLS    CLOUDY    28  25  88 SE3       29.58R
WINNER         CLOUDY    28  23  81 N10       29.56R WCI  19
YANKTON        CLOUDY    27  23  86 E6        29.57R WCI  20
$$

MNZ071-072-080-081-089-090-097-098-251400-
SOUTHWEST MINNESOTA

CITY           SKY/WX    TMP DP  RH WIND       PRES   REMARKS
FAIRMONT       CLOUDY    30  25  80 S14       29.63S WCI  20
JACKSON        CLOUDY    30  28  93 S9        29.61S WCI  22
LUVERNE        CLOUDY    30  28  93 SE3       29.59S
MARSHALL       CLOUDY    28  25  86 CALM      29.61R
MONTEVIDEO     CLOUDY    30  30 100 CALM      29.63R
PIPESTONE      CLOUDY    28  28 100 S6        29.57R WCI  22
REDWOOD FALLS  CLOUDY    30  27  88 S8        29.62R WCI  22
TRACY          CLOUDY    30  28  91 CALM      29.60R
WINDOM         CLOUDY    30  28  93 S7        29.60R WCI  23
WORTHINGTON    CLOUDY    28 -18  12 S8        29.59R WCI  20
$$

IAZ001>003-012>014-020>022-031-032-NEZ013-014-SDZ071-251400-
NORTHWEST IOWA

CITY           SKY/WX    TMP DP  RH WIND       PRES   REMARKS
DENISON        CLOUDY    32  28  86 S10       29.61S WCI  24
ESTHERVILLE    CLOUDY    28  27  96 S13       29.61F WCI  17
ORANGE CITY    CLOUDY    30  27  86 S6        29.58R WCI  24
SIOUX CITY     CLOUDY    30  27  88 SE8       29.59R WCI  22
SPENCER        CLOUDY    29  25  85 SE9       29.61S WCI  20
$$

ABBREVIATIONS USED IN REMARKS
   TC - TEMPERATURE IN CELSIUS
  WCI - WIND CHILL INDEX
   HX - HEAT INDEX
  VSB - VISIBILITY



USA.gov is the U.S. government's official web portal to all federal, state and local government web resources and services.